Garrison, ND

2:38 AM CDT on September 25, 2017 (GMT -0500)
Garrison

Weather History for KN60 - February, 2013

Change the Weather History Date:

Friday, February 15, 2013

  Actual Average Record
Temperature  
Mean Temperature 12 °F -  
Max Temperature 18 °F - 43 °F (2002)
Min Temperature 5 °F - -24 °F (2007)
Degree Days  
Heating Degree Days 53    
Month to date heating degree days 677  
Cooling Degree Days 0    
Moisture  
Dew Point 10 °F    
Average Humidity 81    
Maximum Humidity 88    
Minimum Humidity 74    
Precipitation  
Precipitation 0.00 in - 0.15 in (2016)
Month to date precipitation 0.43  
Year to date precipitation 0.93  
Sea Level Pressure  
Sea Level Pressure 30.36 in    
Wind  
Wind Speed 8 mph (NW)    
Max Wind Speed 16 mph    
Max Gust Speed 18 mph    
T = Trace of Precipitation, MM = Missing Value Source: NWS Daily Summary

Daily Weather History Graph

Daily Weather History Graph

Search for Another Location

Airport or City:

Trip Planner

Search our weather history database for the weather conditions in past years. The results will help you decide how hot, cold, wet, or windy it might be!

Date:

Astronomy

Feb. 15, 2013 Rise Set
Actual Time 7:50 AM CST 6:09 PM CST
Civil Twilight 7:19 AM CST 6:41 PM CST
Nautical Twilight 6:43 AM CST 7:17 PM CST
Astronomical Twilight 6:07 AM CST 7:52 PM CST
Moon 10:00 AM CST (2/15) No Moon Set
Length of Visible Light 11h 22m
Length of Day
10h 18m
Waxing Crescent, 30% of the Moon is Illuminated
Feb 15
Waxing Crescent
Feb 17
First Quarter
Feb 25
Full
Mar 4
Last Quarter
Mar 11
New

Hourly Weather History & Observations

Time (CST) Temp. Windchill Dew Point Humidity Pressure Visibility Wind Dir Wind Speed Gust Speed Precip Events Conditions
12:52 AM 14.0 °F 1.2 °F 10.0 °F 84% 30.35 in - NW 10.4 mph - N/A   Unknown
1:52 AM 15.1 °F 5.2 °F 10.9 °F 84% 30.35 in - NW 6.9 mph - N/A   Unknown
2:52 AM 14.0 °F 3.9 °F 10.9 °F 88% 30.35 in - NW 6.9 mph - N/A   Unknown
3:52 AM 14.0 °F 6.5 °F 10.9 °F 88% 30.35 in - NNW 4.6 mph - N/A   Unknown
4:52 AM 16.0 °F 5.3 °F 12.9 °F 88% 30.35 in - North 8.1 mph - N/A   Unknown
5:52 AM 16.0 °F 3.6 °F 12.0 °F 84% 30.37 in - NNW 10.4 mph - N/A   Unknown
6:52 AM 7.0 °F -7.5 °F 3.9 °F 87% 30.39 in - NNW 10.4 mph - N/A   Unknown
7:52 AM 6.1 °F -6.8 °F 3.0 °F 87% 30.42 in - NNW 8.1 mph - N/A   Unknown
8:52 AM 14.0 °F 1.2 °F 10.0 °F 84% 30.43 in - NW 10.4 mph - N/A   Unknown
9:52 AM 14.0 °F -1.4 °F 9.0 °F 80% 30.45 in - NW 15.0 mph - N/A   Unknown
10:52 AM 14.0 °F 2.9 °F 8.1 °F 77% 30.45 in - North 8.1 mph - N/A   Unknown
11:52 AM 14.0 °F 1.2 °F 9.0 °F 80% 30.46 in - NW 10.4 mph - N/A   Unknown
12:52 PM 15.1 °F 4.2 °F 10.0 °F 80% 30.44 in - NW 8.1 mph - N/A   Unknown
1:52 PM 17.1 °F 6.6 °F 10.9 °F 77% 30.43 in - WNW 8.1 mph - N/A   Unknown
2:52 PM 17.1 °F 7.6 °F 12.0 °F 81% 30.41 in - WNW 6.9 mph - N/A   Unknown
3:52 PM 17.1 °F 7.6 °F 10.9 °F 77% 30.39 in - WNW 6.9 mph - N/A   Unknown
4:52 PM 16.0 °F - 10.0 °F 77% 30.37 in - Calm Calm - N/A   Unknown
5:52 PM 12.9 °F - 8.1 °F 81% 30.36 in - Calm Calm - N/A   Unknown
6:52 PM 12.0 °F - 7.0 °F 80% 30.33 in - Calm Calm - N/A   Unknown
7:52 PM 12.0 °F 5.9 °F 9.0 °F 88% 30.30 in - SE 3.5 mph - N/A   Unknown
8:52 PM 10.9 °F 2.9 °F 8.1 °F 88% 30.25 in - SE 4.6 mph - N/A   Unknown
9:52 PM 14.0 °F 5.1 °F 10.0 °F 84% 30.21 in - SSE 5.8 mph - N/A   Unknown
10:52 PM 17.1 °F 10.0 °F 12.0 °F 81% 30.18 in - SE 4.6 mph - N/A   Unknown
11:52 PM 19.0 °F 10.0 °F 14.0 °F 81% 30.14 in - South 6.9 mph - N/A   Unknown